Regional Weather Roundup
Issued by NWS State College, PA

Home | Current Version | Previous Version | Graphics & Text | Print | Product List | Glossary On
Versions: 1 2 3 4 5 6 7 8 9 10 11 12 13 14 15 16 17 18 19 20 21 22 23 24 25 26 27 28 29 30 31 32 33 34 35 36 37 38 39 40 41 42 43 44 45 46 47 48 49 50
000
ASUS41 KCTP 281310
RWRCTP

REGIONAL WEATHER ROUNDUP
NATIONAL WEATHER SERVICE STATE COLLEGE PA
900 AM EDT FRI APR 28 2017

Note: "fair" indicates few or no clouds below 12,000 feet with no
significant weather and/or obstructions to visibility.

* = STATION THAT DOES NOT REPORT PRECIPITATION /E.G. RAIN...SNOW...ETC/
    THUNDER OR FOG.

PAZ002>004-007>009-013>016-020>023-029>032-281400-
WESTERN PENNSYLVANIA

CITY           SKY/WX    TMP DP  RH WIND       PRES   REMARKS
ERIE           PTSUNNY   53  42  66 SW12      30.02S
MEADVILLE      SUNNY     51  43  74 SW9       30.03S
FRANKLIN*      SUNNY     52  43  71 SW7       30.06R
NEW CASTLE     NOT AVBL
BEAVER COUNTY  SUNNY     54  46  76 CALM      30.06R
BUTLER*        SUNNY     54  46  76 CALM      30.07R
PITTSBURGH INT MOSUNNY   55  50  83 CALM      30.06R
PITTSBURGH     SUNNY     56  46  69 CALM      30.06R
INDIANA*       SUNNY     55  50  82 CALM      30.08F
LATROBE        MOSUNNY   55  54  94 CALM      30.07S
WASHINGTON CO* SUNNY     54  48  82 CALM      30.09R
$$

PAZ004>006-010>012-017>019-024>028-033>037-041-042-045-046-049>053-281400-
CENTRAL PENNSYLVANIA

CITY           SKY/WX    TMP DP  RH WIND       PRES   REMARKS
BRADFORD       CLOUDY    49  42  77 SW8       30.05R
DUBOIS         CLOUDY    51  43  74 SW6       30.05S
CLEARFIELD     CLOUDY    56  45  66 W9        30.06R
JOHNSTOWN      MOSUNNY   53  49  86 W5        30.05S
ALTOONA        CLOUDY    61  52  72 NW5       30.06R
STATE COLLEGE  MOSUNNY   59  52  77 W9        30.08R
WILLIAMSPORT   MOSUNNY   64  57  77 W10       30.01R
SELINSGROVE    MOSUNNY   66  58  75 VRB3      30.03R
FT INDIANTOWN  MOSUNNY   69  60  73 W10       30.01R
CAPITAL CITY   SUNNY     70  53  54 NW13      30.01R
HARRISBURG     MOSUNNY   69  59  70 NW9       30.00R
YORK           SUNNY     70  56  61 W7        30.01R
$$

PAZ038>040-043-044-047-048-054-055-060>062-067>071-281400-
EASTERN PENNSYLVANIA

CITY           SKY/WX    TMP DP  RH WIND       PRES   REMARKS
SCRANTON       MOSUNNY   68  59  73 W7        29.98R
MOUNT POCONO   SUNNY     65  50  58 NW8G21    30.00R
ALLENTOWN      SUNNY     69  61  75 W7        29.98R
QUAKERTOWN*    SUNNY     72  61  68 NW8       30.00R
READING        SUNNY     72  59  63 NW12      29.99R
LANCASTER      SUNNY     70  64  81 NW8       30.00R
COATESVILLE    SUNNY     70  63  78 NW8       30.02R
POTTSTOWN      SUNNY     70  61  73 VRB7      30.00R
BLUE BELL      SUNNY     70  61  73 NW6       30.00R
DOYLESTOWN     SUNNY     70  63  78 W6        29.97R
WILLOW GROVE   NOT AVBL
NORTH PHILA    SUNNY     73  63  70 VRB6      30.00R
PHILADELPHIA   MOSUNNY   71  63  75 S7        29.99R
$$




USA.gov is the U.S. government's official web portal to all federal, state and local government web resources and services.